This is the latest recevied weather packets stored in our database for station/object W8CEN. If no packets are shown the sender has not sent any weather packets the latest 10 day(s).
| Time | Temp. | Humidity | Pressure | Rain* | Wind** | Luminosity | Snow |
|---|---|---|---|---|---|---|---|
| 1778001036 | 15.56° C | 71% | 986.5 hPa | 0 mm | - | 78 W/m² | - |
| 1778000733 | 15.56° C | 72% | 986.2 hPa | 0 mm | - | 85 W/m² | - |
| 1778000430 | 15.56° C | 73% | 986.3 hPa | 0 mm | - | 100 W/m² | - |
| 1778000125 | 15.56° C | 73% | 986.2 hPa | 0 mm | - | 100 W/m² | - |
| 1777999821 | 15.56° C | 72% | 986.2 hPa | 0 mm | - | 75 W/m² | - |
| 1777999517 | 15.56° C | 73% | 986.4 hPa | 0 mm | - | 60 W/m² | - |
| 1777999215 | 16.11° C | 73% | 986.4 hPa | 0 mm | - | 55 W/m² | - |
| 1777998913 | 16.11° C | 72% | 986.3 hPa | 0 mm | - | 70 W/m² | - |
| 1777998610 | 16.11° C | 71% | 986.3 hPa | 0 mm | - | 59 W/m² | - |
| 1777998303 | 16.11° C | 72% | 986.3 hPa | 0 mm | - | 62 W/m² | - |
| 1777998000 | 16.11° C | 71% | 986.2 hPa | 0 mm | - | 49 W/m² | - |
| 1777997696 | 16.11° C | 72% | 986.4 hPa | 0 mm | - | 53 W/m² | - |
| 1777997394 | 16.11° C | 71% | 986.2 hPa | 0 mm | - | 70 W/m² | - |
| 1777997092 | 16.11° C | 72% | 986.4 hPa | 0 mm | - | 71 W/m² | - |
| 1777996788 | 16.67° C | 71% | 986.2 hPa | 0 mm | - | 60 W/m² | - |
| 1777996485 | 16.67° C | 71% | 986.3 hPa | 0 mm | - | 60 W/m² | - |
| 1777996182 | 16.67° C | 71% | 986.1 hPa | 0 mm | - | 73 W/m² | - |
| 1777995878 | 16.67° C | 70% | 986.2 hPa | 0 mm | - | 73 W/m² | - |
| 1777995574 | 16.67° C | 70% | 986.1 hPa | 0 mm | - | 127 W/m² | - |
| 1777995272 | 16.67° C | 70% | 986.1 hPa | 0 mm | - | 150 W/m² | - |
| 1777994968 | 16.67° C | 70% | 986 hPa | 0 mm | - | 133 W/m² | - |
| 1777994666 | 16.67° C | 71% | 986.1 hPa | 0 mm | - | 84 W/m² | - |
| 1777994366 | 16.67° C | 71% | 986.1 hPa | 0 mm | - | 82 W/m² | - |
| 1777994062 | 16.67° C | 70% | 985.9 hPa | 0 mm | - | 73 W/m² | - |
| 1777993760 | 17.22° C | 71% | 985.9 hPa | 0 mm | - | 97 W/m² | - |
* Rain latest hour (hover to see other rain measurements)
** Current wind speed in m/s (hover to see current wind gust speed)